Accueil
METAR-TAF:

METAR-TAF

Aéroports :

Sarzana, Italie

Luni

latitude: 44-05N, longitude: 009-59E, altitude: 9 m

Observation

Le bulletin a été fait il y a 11 heures et 18 minutes, à 10:55 UTC
Vent 2 kt de nord-ouest
Température 13°C
Humidité 82%
Pression 1022 hPa
Visibilité 10 km ou plus
Quelques nuages à une hauteur de 3000 ft

METAR: LIQW 241055Z 32002KT 9999 FEW030 13/10 Q1022 RMK BKN BKN060 VIS MIN 9999 WIND THR18 31002KT BLU

Heure: 23:13 (22:13 UTC)


TAF: absent

Observations et prévisions météorologiques de plus de 4000 aéroports (messages METAR et TAF).

Les stations disponibles sont représentées par des disques jaunes et rouges sur la carte.

Passer la souris dessus pour voir le nom de la station.

Cliquer dessus pour voir les observations et prévisions météorologiques.

Pour changer de carte: cliquez sur les boutons verts avec une croix noire pour zoomer, sur le bouton vert avec un tiret pour effectuer un zoom arrière, ou sur les flèches vertes pour les cartes adjacentes.


METAR-TAF: